Weather History for Grand Canyon, AZ

Change the Weather History Date:

Tuesday, November 13, 2012

  Actual Average Record
Temperature  
Mean Temperature 32 °F -  
Max Temperature 54 °F 50 °F 69 °F (1999)
Min Temperature 10 °F 20 °F -2 °F (1985)
Degree Days  
Heating Degree Days 33    
Moisture  
Dew Point -4 °F    
Average Humidity 27    
Maximum Humidity 44    
Minimum Humidity 12    
Precipitation  
Precipitation 0.00 in - - ()
Sea Level Pressure  
Sea Level Pressure 30.35 in    
Wind  
Wind Speed 3 mph (NE)    
Max Wind Speed 14 mph    
Max Gust Speed 18 mph    
Visibility 10 miles    
Events      
Averages and records for this station are not official NWS values.
T = Trace of Precipitation, MM = Missing Value Source: NWS Daily Summary

Daily Weather History Graph

Daily Weather History Graph

Search for Another Location

Airport:

Trip Planner

Search our weather history database for the weather conditions in past years. The results will help you decide how hot, cold, wet, or windy it might be!

Date:

Astronomy

Nov. 13, 2012 Rise Set
Actual Time 7:03 AM MST 5:22 PM MST
Civil Twilight 6:36 AM MST 5:49 PM MST
Nautical Twilight 6:05 AM MST 6:20 PM MST
Astronomical Twilight 5:35 AM MST 6:50 PM MST
Moon 6:45 AM MST (11/13) 5:19 PM MST (11/13)
Length of Visible Light 11h 12m
Length of Day
10h 18m
Waning Crescent, 0% of the Moon is Illuminated
Nov 13
Waning Crescent
Nov 13
New
Nov 20
First Quarter
Nov 28
Full
Dec 6
Last Quarter

Hourly Weather History & Observations

Time (MST) Temp. Windchill Dew Point Humidity Pressure Visibility Wind Dir Wind Speed Gust Speed Precip Events Conditions
12:54 AM 15.1 °F - -8.0 °F 36% 30.35 in 10.0 mi Calm Calm - N/A   Clear
1:54 AM 10.9 °F - -8.0 °F 42% 30.35 in 10.0 mi Calm Calm - N/A   Clear
2:54 AM 12.9 °F - -7.1 °F 41% 30.35 in 10.0 mi Calm Calm - N/A   Clear
3:54 AM 12.9 °F - -7.1 °F 41% 30.37 in 10.0 mi Calm Calm - N/A   Clear
4:54 AM 10.0 °F - -9.0 °F 42% 30.38 in 10.0 mi Calm Calm - N/A   Clear
5:54 AM 10.9 °F - -7.1 °F 44% 30.40 in 10.0 mi Calm Calm - N/A   Clear
6:54 AM 10.0 °F - -8.0 °F 44% 30.44 in 10.0 mi Calm Calm - N/A   Clear
7:54 AM 17.1 °F - -5.1 °F 37% 30.42 in 10.0 mi Calm Calm - N/A   Clear
8:54 AM 35.1 °F - -0.9 °F 22% 30.35 in 10.0 mi Calm Calm - N/A   Clear
9:54 AM 46.9 °F - -4.0 °F 12% 30.34 in 10.0 mi NE 10.4 mph - N/A   Clear
10:54 AM 48.9 °F - -0.9 °F 13% 30.34 in 10.0 mi ENE 13.8 mph 18.4 mph N/A   Clear
11:54 AM 51.1 °F - -0.0 °F 12% 30.31 in 10.0 mi NE 10.4 mph - N/A   Clear
12:54 PM 53.1 °F - 3.0 °F 13% 30.30 in 10.0 mi NE 6.9 mph - N/A   Clear
1:54 PM 53.1 °F - 3.9 °F 14% 30.30 in 10.0 mi Variable 6.9 mph - N/A   Clear
2:54 PM 54.0 °F - 1.9 °F 12% 30.27 in 10.0 mi ENE 9.2 mph - N/A   Clear
3:54 PM 53.1 °F - 1.0 °F 12% 30.28 in 10.0 mi NE 10.4 mph - N/A   Clear
4:54 PM 48.0 °F - -0.9 °F 13% 30.32 in 10.0 mi NE 9.2 mph - N/A   Clear
5:54 PM 37.9 °F 34.4 °F -2.0 °F 18% 30.36 in 10.0 mi ENE 4.6 mph - N/A   Clear
6:54 PM 28.0 °F 24.2 °F -5.1 °F 24% 30.43 in 10.0 mi ENE 3.5 mph - N/A   Clear
7:54 PM 24.1 °F - -5.1 °F 28% 30.42 in 10.0 mi Calm Calm - N/A   Clear
8:54 PM 17.1 °F - -8.0 °F 33% 30.39 in 10.0 mi Calm Calm - N/A   Clear
9:54 PM 19.0 °F - -7.1 °F 31% 30.33 in 10.0 mi Calm Calm - N/A   Clear
10:54 PM 16.0 °F 10.4 °F -6.0 °F 38% 30.32 in 10.0 mi NE 3.5 mph - N/A   Clear
11:54 PM 17.1 °F 11.7 °F -6.0 °F 36% 30.32 in 10.0 mi NE 3.5 mph - N/A   Clear